Location: Bruderhein
(53.8035°N, 112.9265°W)
Time: 01:59:51
(UTC+00:00)

KKS-1 - Pass Details

Date: 03 April 2023
Orbit: 633 x 644 km, 98.2° (Epoch: 31 May)

Event Time Altitude Azimuth Distance (km) Brightness Sun altitude
Rises 06:48:33 0° 12° (NNE) 2,946 ? -30.2°
Reaches altitude 10° 06:50:47 10° 8° (N) 2,032 ? -30.2°
Enters shadow 06:53:48 39° 345° (NNW) 955 ? -30.3°
